Погода в Васильевке

Россия / Оренбургская область     51°51′31″N   56°25′12″E
темп.,
°C
ветер,
м/с
пор.,
м/с
влажн.,
%
обл.,
%
осадки,
мм/ч
давл.,
гПа
погр.,
м
27 февраля, сб
сб2723:00−18вюв5109382 0.1 1022231
02:00−17юв6129394 0.1 1019314
05:00−16юв8139296 0.1 1016384
08:00−15юв81494100 1.3 1011433
11:00−9ююв71394100 4.3 1008620
14:00−5ююв71294100 0.9 1005555
17:00−2ююв4797100 2.2 1003312
20:000зюз4897100 0.2 1003452
28 февраля, вс
вс2823:000ююз3797100 0.3 1002318
02:000юз4898100 0.6 1001417
05:000зюз4897100 1.4 1001455
08:00−2юз4898100 0.6 1000289
11:00−1юз6997100 1.8 1000616
14:00−1зюз6898100 1.6 1001549
17:00−7зюз6892100 2.1 1003431
20:00−12юз3596100 0.1 100799
1 марта, пн
пн123:00−10ююз3796100 0.3 1010169
02:00−12юз369698 0.3 1012151
05:00−13юз249698 0.5 1013103
08:00−14юз239699 0.3 101458
11:00−12юз239499 0.4 1016251
14:00−11зюз3491100 0.1 1017412
17:00−11з3593100 0.3 1018442
20:00−13з359696 0.2 1019135
2 марта, вт
вт223:00−17зсз359892 0.3 102086
02:00−21з239994 0.0 102026
05:00−24зсз229979 0.1 102120
08:00−25зюз1110085 0.0 102220
11:00−21ююз239792 0.1 1022187
14:00−18ююз3493100 0.0 1021325
17:00−17ю3694100 0.0 1019328
20:00−20ююв469895 0.0 1018112
3 марта, ср
ср323:00−17ююв599697 0.1 1017267
02:00−15юв5995100 0.4 1014277
05:00−12юв4995100 1.3 1011303
08:00−7ююв51196100 1.3 1009461
11:00−5ю71295100 2.8 1007630
14:00−3ююв71195100 1.6 1005731
17:00−1ююв61097100 3.3 1003637
20:00−1ююв4898100 1.5 1002414